N75RW KFLL-KFXE

Flight info

Callsign N75RW
Flight time 0h -17m
Altitude 3000
Route DCT
Aircraft PC12/L-VGD/C

Departure

Time 2026-05-07 16:41
Airport Fort Lauderdale Hollywood International Airport (KFLL)

Arrival

Time 2026-05-07 16:23
Airport Fort Lauderdale Executive Airport (KFXE)
Time Latitude Longitude Altitude Speed Heading
2026-05-07 16:23 26.07288 -80.15617 12 ft 0 kts 43°
2026-05-07 16:37 26.07301 -80.15604 12 ft 6 kts 42°
2026-05-07 16:37 26.07343 -80.15613 12 ft 9 kts 314°
2026-05-07 16:37 26.07397 -80.15675 12 ft 12 kts 314°
2026-05-07 16:37 26.07465 -80.15746 12 ft 14 kts 315°
2026-05-07 16:38 26.07493 -80.15847 12 ft 14 kts 270°
2026-05-07 16:38 26.07493 -80.15962 12 ft 16 kts 271°
2026-05-07 16:38 26.07494 -80.16086 12 ft 17 kts 270°
2026-05-07 16:38 26.07495 -80.16222 12 ft 20 kts 269°
2026-05-07 16:39 26.07496 -80.16397 12 ft 19 kts 272°
2026-05-07 16:39 26.07498 -80.16524 12 ft 20 kts 270°
2026-05-07 16:39 26.07517 -80.16636 12 ft 9 kts 331°
2026-05-07 16:39 26.07613 -80.16644 13 ft 17 kts 359°
2026-05-07 16:40 26.07695 -80.16615 14 ft 8 kts 86°
2026-05-07 16:40 26.07695 -80.16495 15 ft 32 kts 91°
2026-05-07 16:40 26.07693 -80.16034 15 ft 82 kts 98°
2026-05-07 16:40 26.07699 -80.15323 116 ft 97 kts 92°
2026-05-07 16:41 26.07675 -80.14534 296 ft 108 kts 96°
2026-05-07 16:41 26.07602 -80.13634 508 ft 125 kts 98°
2026-05-07 16:41 26.07650 -80.12602 846 ft 141 kts 83°
2026-05-07 16:41 26.07784 -80.11484 1246 ft 151 kts 83°
2026-05-07 16:42 26.07941 -80.10257 1514 ft 165 kts 83°
2026-05-07 16:42 26.08435 -80.09135 1850 ft 169 kts 37°
2026-05-07 16:42 26.09572 -80.08861 2194 ft 172 kts
2026-05-07 16:42 26.10785 -80.08921 2537 ft 177 kts 356°
2026-05-07 16:43 26.12046 -80.09027 2780 ft 188 kts 355°
2026-05-07 16:43 26.13391 -80.09162 2897 ft 201 kts 355°
2026-05-07 16:43 26.14804 -80.09317 2948 ft 212 kts 354°
2026-05-07 16:43 26.16299 -80.09491 2976 ft 219 kts 354°
2026-05-07 16:44 26.17833 -80.09675 3002 ft 224 kts 353°
2026-05-07 16:44 26.19397 -80.09871 3043 ft 228 kts 354°
2026-05-07 16:44 26.20948 -80.10211 3043 ft 229 kts 335°
2026-05-07 16:44 26.22035 -80.11467 3031 ft 227 kts 299°
2026-05-07 16:45 26.22762 -80.13048 2850 ft 235 kts 295°
2026-05-07 16:45 26.23458 -80.14721 2558 ft 240 kts 294°
2026-05-07 16:45 26.24116 -80.16444 2288 ft 240 kts 287°
2026-05-07 16:45 26.24177 -80.18250 2150 ft 230 kts 265°
2026-05-07 16:46 26.24037 -80.19999 2086 ft 223 kts 263°
2026-05-07 16:46 26.23875 -80.21685 2056 ft 216 kts 263°
2026-05-07 16:46 26.23706 -80.23325 2036 ft 209 kts 263°
2026-05-07 16:46 26.23539 -80.24881 2028 ft 197 kts 262°
2026-05-07 16:47 26.23374 -80.26357 2021 ft 188 kts 262°
2026-05-07 16:47 26.23214 -80.27784 2027 ft 183 kts 262°
2026-05-07 16:47 26.23058 -80.29152 2052 ft 170 kts 262°
2026-05-07 16:47 26.22910 -80.30401 2114 ft 155 kts 262°
2026-05-07 16:48 26.22783 -80.31536 2057 ft 141 kts 262°
2026-05-07 16:48 26.22526 -80.32553 2014 ft 135 kts 225°
2026-05-07 16:48 26.21680 -80.32780 2051 ft 131 kts 160°
2026-05-07 16:48 26.20842 -80.32462 2055 ft 126 kts 161°
2026-05-07 16:49 26.20027 -80.32186 2010 ft 119 kts 162°
2026-05-07 16:49 26.19393 -80.31676 2022 ft 114 kts 122°
2026-05-07 16:49 26.18943 -80.30960 1980 ft 112 kts 124°
2026-05-07 16:49 26.18568 -80.30240 2010 ft 104 kts 104°
2026-05-07 16:50 26.18589 -80.29445 1991 ft 106 kts 81°
2026-05-07 16:50 26.18734 -80.28626 1960 ft 108 kts 77°
2026-05-07 16:50 26.18885 -80.27796 1862 ft 110 kts 84°
2026-05-07 16:50 26.18958 -80.26940 1721 ft 112 kts 87°
2026-05-07 16:51 26.19000 -80.26094 1581 ft 103 kts 88°
2026-05-07 16:51 26.19053 -80.25322 1370 ft 98 kts 87°
2026-05-07 16:51 26.19135 -80.24593 1223 ft 92 kts 84°
2026-05-07 16:51 26.19211 -80.23871 1118 ft 95 kts 84°
2026-05-07 16:52 26.19270 -80.23140 1054 ft 94 kts 84°
2026-05-07 16:52 26.19336 -80.22405 879 ft 94 kts 83°
2026-05-07 16:52 26.19403 -80.21700 673 ft 90 kts 83°
2026-05-07 16:52 26.19466 -80.21026 569 ft 86 kts 83°
2026-05-07 16:53 26.19534 -80.20366 464 ft 85 kts 82°
2026-05-07 16:53 26.19601 -80.19727 333 ft 83 kts 82°
2026-05-07 16:53 26.19665 -80.19084 239 ft 84 kts 83°
2026-05-07 16:53 26.19723 -80.18452 111 ft 79 kts 84°
2026-05-07 16:54 26.19779 -80.17879 17 ft 67 kts 83°
2026-05-07 16:54 26.19819 -80.17479 20 ft 19 kts 83°
2026-05-07 16:54 26.19776 -80.17369 22 ft 14 kts 128°
2026-05-07 16:54 26.19750 -80.17332 22 ft 0 kts 128°
2026-05-07 16:56 26.19741 -80.17320 24 ft 6 kts 128°
2026-05-07 16:57 26.19707 -80.17274 23 ft 9 kts 131°
2026-05-07 16:57 26.19662 -80.17213 22 ft 11 kts 129°
2026-05-07 16:57 26.19608 -80.17137 21 ft 13 kts 128°
2026-05-07 16:57 26.19559 -80.17070 21 ft 7 kts 129°
2026-05-07 16:58 26.19523 -80.17021 20 ft 9 kts 128°
2026-05-07 16:58 26.19477 -80.16987 19 ft 8 kts 218°
2026-05-07 16:58 26.19458 -80.17007 19 ft 0 kts 233°
2026-05-07 16:58 26.19456 -80.17011 19 ft 3 kts 242°
2026-05-07 16:59 26.19461 -80.17042 20 ft 5 kts 308°
2026-05-07 16:59 26.19488 -80.17042 20 ft 3 kts 92°
2026-05-07 16:59 26.19479 -80.17027 20 ft 2 kts 131°
2026-05-07 16:59 26.19478 -80.17026 20 ft 0 kts 132°
2026-05-07 17:00 26.19474 -80.17024 20 ft 0 kts 177°
2026-05-07 17:00 26.19473 -80.17024 20 ft 0 kts 182°